Tracking 19969 objects as of 13-Nov-2019
Live streaming from Space Station
objects crossing your sky now
Track the group of recently launched Starlink satellites

SMS 2 AKM

Track SMS 2 AKM now!


NORAD ID: 20835
Int'l Code: 1975-011F
Perigee: 35,872.7 km
Apogee: 36,673.5 km
Inclination: 9.8 °
Period: 1,460.7 minutes
Semi major axis: 42644 km
RCS: 0.7943 m2 (medium)
Launch date: February 6, 1975
Source: United States (US)
Launch site: AIR FORCE EASTERN TEST RANGE (AFETR)

Note: This is a ROCKET BODY
aabbcc
Your satellite tracking list
Your tracking list is empty




NASA's NSSDC Master Catalog

Two Line Element Set (TLE):
1 20835U 75011F   19315.93351501 -.00000031 +00000-0 +00000-0 0  9993
2 20835 009.7737 304.3027 0093900 066.3422 111.7915 00.98585836022827
Source of the keplerian elements: AFSPC